Location: Chircca
(13.7944°S, 72.0608°W)
Time: 05:56:58
(UTC+00:00)

Milstar 3 Cent rocket - Pass Details

Date: 14 July 2020
Orbit: 706 x 5147 km, 28.3° (Epoch: 14 August)

Event Time Altitude Azimuth Distance (km) Brightness Sun altitude
Rises 00:53:29 0° 324° (NW) 3,085 5.8 -32.5°
Reaches altitude 10° 00:55:50 10° 336° (NNW) 2,254 4.8 -33.0°
Enters shadow 00:57:37 20° 354° (N) 1,768 4.0 -33.4°
